Location: Hawks Ness
(60.2333°N, 1.1667°W)
Time: 16:59:05
(UTC+00:00)

Cosmos 2369 Rocket - Pass Details

Date: 22 October 2019
Orbit: 830 x 851 km, 71.0° (Epoch: 16 November)

Event Time Altitude Azimuth Distance (km) Brightness Sun altitude
Exits shadow 06:02:33 - 320° (NW) 3,325 4.8 -7.9°
Reaches altitude 10° 06:05:02 10° 311° (NW) 2,452 4.1 -7.6°
Maximum altitude 06:09:55 32° 251° (WSW) 1,412 2.9 -7.0°
Drops below altitude 10° 06:14:46 10° 190° (S) 2,436 4.6 -6.4°
Sets 06:17:25 0° 180° (S) 3,367 5.5 -6.0°
